Theta_e
317 318 319 320 320 321 322 322 323 323 323 323 323 321 321 321 321 320 318 314 314 313 312 312 312 312 311 310 310 310 310 308 309 310 309 307 306 306 304 305 304 302 300 299 300 300 299 297 295 294 294 292 292 292 292 292 292 292 293 292 291 290 291 290 288 288 290 293 291 290 291 291 289 290 289 289 289 290 289 290 290 289 289 289 289
314 315 317 319 319 320 320 321 321 321 320 320 320 321 321 319 318 317 314 313 312 311 311 311 310 312 311 311 309 308 308 307 307 308 306 303 302 303 303 305 302 298 297 295 296 296 296 294 292 291 293 292 291 291 290 290 291 291 290 291 291 290 290 288 288 287 286 289 289 290 290 290 287 290 288 287 288 288 288 289 289 289 289 289 289
313 314 315 316 317 319 319 318 318 317 317 316 316 317 317 316 316 313 312 310 309 310 310 309 309 309 309 309 308 306 306 305 305 306 305 303 301 300 303 303 299 295 296 294 294 294 293 292 290 290 291 290 290 290 289 290 291 290 289 289 289 289 289 289 287 286 286 286 288 287 288 288 287 288 288 288 288 288 287 287 288 289 289 289 288
310 311 313 314 316 315 315 315 314 314 314 314 314 315 315 314 312 312 310 308 307 307 308 307 306 305 306 304 303 303 303 302 303 305 307 305 302 300 300 299 297 296 295 294 293 293 293 291 290 290 291 291 290 289 289 290 290 289 289 289 288 288 288 288 288 286 285 285 287 287 287 286 287 288 288 288 287 286 287 287 288 287 288 288 288
307 309 310 310 311 312 312 312 312 312 312 312 313 313 311 311 309 310 308 306 306 304 302 304 304 304 303 301 300 300 300 300 302 303 304 304 302 299 298 296 296 295 295 295 291 293 292 291 291 291 291 291 290 289 289 289 289 289 289 289 288 289 288 288 287 286 285 285 286 287 287 287 288 287 287 286 285 286 287 286 286 286 287 288 288
305 306 307 308 308 309 309 309 310 310 310 310 310 309 307 306 306 306 305 304 301 301 301 300 301 301 301 300 299 298 297 298 300 300 300 300 298 297 294 294 295 295 295 294 292 292 291 291 291 291 291 290 290 290 290 289 289 288 288 288 288 287 286 286 286 286 285 285 285 285 286 285 285 286 287 286 284 284 284 285 285 286 286 285 286
303 305 306 307 306 307 307 307 308 308 307 307 304 303 303 302 302 302 300 300 298 297 296 298 297 299 298 298 298 297 296 297 297 298 297 297 296 295 293 293 294 294 294 292 291 291 291 290 290 290 291 291 290 289 289 288 289 288 288 287 287 287 286 286 286 285 285 284 285 285 285 286 285 284 286 286 285 284 283 282 282 285 285 284 284
303 303 304 304 305 305 304 304 303 303 303 301 300 299 299 298 299 298 297 297 297 297 297 297 296 297 296 296 296 296 296 296 296 296 293 293 295 295 293 293 293 291 290 290 290 290 290 290 290 290 290 290 289 289 289 288 288 287 287 287 287 286 286 285 285 285 284 284 284 284 284 284 285 285 285 284 283 283 283 281 280 281 282 284 284
301 302 302 303 304 304 303 300 301 299 297 297 297 297 296 296 296 296 296 296 297 296 296 296 295 295 296 296 295 295 296 293 293 294 292 293 294 294 294 292 290 289 289 288 288 288 288 289 289 289 288 286 286 287 288 288 288 287 287 286 286 285 285 285 284 284 284 284 283 284 283 283 283 282 282 281 281 280 282 282 280 281 282 281 282
300 301 301 302 301 299 298 296 297 296 296 296 296 295 295 295 294 294 295 295 295 294 294 295 295 294 294 294 294 295 294 294 291 291 292 293 294 293 291 290 289 289 288 287 287 287 287 288 287 285 284 285 285 285 286 286 287 288 287 286 285 285 284 283 283 284 283 282 282 282 281 281 281 281 281 281 282 282 281 280 279 280 280 280 281
300 300 300 297 295 294 294 294 293 294 295 295 294 294 294 293 293 293 293 293 292 292 292 292 293 294 293 292 291 292 293 292 289 292 293 293 291 291 290 289 289 288 287 287 286 286 286 286 285 285 285 284 285 285 285 285 285 285 284 284 285 285 283 282 283 283 282 282 282 281 281 280 281 281 281 281 281 280 280 280 279 279 278 276 275
299 299 298 294 293 294 293 293 292 292 293 293 292 292 292 291 292 291 291 291 291 291 292 293 292 291 292 292 292 291 291 289 291 292 293 292 291 290 290 289 288 287 287 286 286 285 285 284 285 285 285 285 286 285 285 285 284 284 283 283 283 283 284 283 282 282 282 281 280 281 280 280 280 281 281 281 280 280 280 279 279 278 277 276 276
298 298 295 294 293 293 292 292 293 292 292 291 291 291 291 291 291 290 291 291 290 290 292 291 290 290 291 291 291 291 290 289 291 292 292 292 291 289 289 288 287 287 287 286 285 285 284 284 284 284 284 284 285 285 284 283 283 283 282 282 282 282 283 283 283 283 283 281 280 280 280 280 280 281 281 280 281 278 278 278 278 278 277 276 277
297 296 294 294 293 292 292 292 292 292 291 290 290 290 291 291 290 291 290 289 289 290 290 290 289 290 290 290 290 290 290 289 290 291 291 291 290 289 288 288 287 287 286 286 285 285 284 283 283 283 283 284 284 284 284 283 282 282 282 282 282 282 282 281 280 280 281 282 281 280 281 282 280 281 282 281 279 277 277 276 277 276 276 276 277
295 295 294 293 293 292 292 292 292 291 290 290 290 290 290 290 290 289 289 289 289 289 289 289 289 289 290 290 291 290 290 289 291 291 290 290 290 288 288 287 287 286 286 286 285 284 284 283 283 283 283 283 284 284 283 283 282 282 281 281 282 282 282 281 281 282 282 283 282 282 282 282 281 281 281 281 280 280 279 277 277 277 277 278 277
295 295 294 293 293 292 292 292 292 291 290 290 290 290 290 289 289 289 289 289 289 290 290 289 288 288 289 290 292 290 290 290 290 290 290 290 289 287 287 286 286 285 285 285 285 284 284 284 283 283 283 283 283 284 284 283 282 281 280 281 281 281 280 281 282 283 283 282 282 281 281 281 281 281 281 280 279 279 278 278 278 277 276 274 274
295 294 294 294 293 292 292 292 292 291 290 290 289 289 289 288 288 289 289 289 289 289 289 289 289 288 288 288 288 289 289 290 290 290 289 289 287 286 285 285 284 284 284 284 283 283 283 283 283 283 282 282 284 285 285 283 282 280 280 279 279 279 279 281 282 281 280 279 278 278 279 279 280 280 280 279 278 278 277 275 275 275 273 272 272
295 295 294 294 293 293 293 293 290 290 289 289 289 289 289 289 288 288 289 289 289 288 289 290 288 288 287 288 288 288 288 288 289 289 289 288 287 285 285 285 284 283 282 282 283 282 282 282 282 282 282 282 284 285 285 283 281 280 279 278 277 277 278 281 281 280 278 277 276 277 277 277 277 277 277 277 277 277 276 273 274 274 272 272 270
294 294 294 295 294 293 292 291 290 289 289 289 289 289 288 288 289 288 289 289 289 289 289 288 288 288 287 287 286 287 287 287 288 289 288 287 286 285 285 284 283 282 281 281 281 281 281 282 282 282 282 283 285 285 285 283 281 280 279 277 276 276 278 280 278 277 276 275 276 276 276 276 276 275 275 275 276 276 277 276 275 273 271 271 271
295 296 296 294 293 290 290 289 289 289 288 288 288 288 288 288 287 288 288 289 288 288 287 287 286 286 286 286 286 287 287 287 287 288 288 287 286 285 285 283 282 281 281 280 279 280 280 281 281 282 283 284 285 285 285 284 281 281 279 278 277 276 279 277 276 276 274 274 274 274 274 275 275 274 274 275 275 276 276 275 275 273 271 271 270
294 294 294 293 290 289 289 289 288 288 288 288 288 288 288 288 287 287 287 287 287 286 286 286 285 285 286 286 286 286 287 286 286 288 287 286 286 285 284 284 283 281 280 279 279 279 279 280 280 282 284 284 284 284 284 284 283 281 279 278 278 279 278 275 274 275 273 273 273 273 273 273 273 273 273 274 275 275 275 275 274 273 272 270 270
293 293 291 289 288 288 288 288 288 288 288 288 287 287 287 287 287 287 288 286 285 284 284 285 285 285 285 285 285 285 285 286 286 286 287 286 286 285 284 284 283 282 280 279 279 279 279 279 279 282 284 284 284 284 284 283 283 281 279 280 280 279 276 275 274 274 273 273 273 272 272 272 272 272 272 273 274 274 273 273 273 272 272 272 271
292 292 289 288 287 287 287 287 287 287 287 287 287 287 286 286 285 286 285 284 284 283 283 283 283 284 284 285 285 284 285 285 285 285 286 286 285 285 285 284 283 283 281 279 279 279 279 279 280 282 283 283 283 283 283 283 282 280 280 280 279 278 275 274 273 273 272 272 272 271 271 271 271 271 272 272 272 272 272 271 271 271 271 271 272
289 288 288 287 287 287 287 286 287 287 287 286 286 286 286 285 285 285 285 285 284 283 283 283 283 283 282 283 283 284 284 284 284 284 285 285 285 285 284 284 284 282 282 281 280 279 279 279 280 281 283 283 283 283 283 282 281 280 280 279 277 275 273 272 272 272 271 271 270 270 270 271 271 271 271 272 272 271 270 270 269 270 270 270 271
286 286 285 285 286 286 286 287 286 286 286 286 286 286 285 285 284 285 285 285 284 284 283 283 283 282 282 282 282 282 283 284 284 284 284 284 285 284 284 283 284 283 280 281 280 280 280 280 280 281 282 282 282 282 282 281 280 280 279 277 275 273 272 272 271 270 270 270 270 270 270 270 271 271 271 271 270 269 269 269 269 269 269 269 269
285 284 284 284 284 283 284 284 284 284 285 286 286 286 285 285 285 285 285 285 284 284 283 282 282 282 282 282 281 281 282 283 283 283 283 284 284 284 283 283 283 282 280 279 279 280 280 280 281 281 281 281 280 280 280 279 278 278 276 274 272 272 271 271 270 270 270 270 270 269 270 270 270 270 270 269 268 268 267 267 267 267 267 267 267
283 283 282 283 282 283 284 285 284 283 284 285 286 286 285 285 285 284 284 284 284 284 283 282 282 282 281 282 281 281 281 282 282 282 283 283 283 283 283 282 282 280 278 279 279 279 280 279 279 280 280 281 279 277 276 277 276 274 272 271 270 270 270 270 270 270 270 270 269 269 269 269 269 268 268 268 267 267 267 266 265 266 266 266 265
283 282 281 282 283 283 284 280 282 284 284 284 285 285 285 285 285 284 284 285 284 283 283 282 282 281 281 281 280 280 280 281 282 282 282 282 282 282 282 281 280 278 277 278 278 279 279 279 279 279 277 276 275 275 274 274 272 270 270 269 268 269 270 270 270 269 269 270 269 268 267 268 267 267 267 267 266 266 266 265 265 264 265 265 264
280 279 280 281 281 281 283 282 283 284 283 283 284 285 285 285 285 285 285 286 286 285 283 283 283 283 283 282 281 280 280 280 281 283 282 282 282 281 281 280 280 279 278 279 277 277 277 277 275 274 274 273 272 271 270 270 269 268 267 267 267 267 268 269 268 268 268 267 267 266 266 267 267 267 266 265 266 266 265 265 264 264 264 265 264
280 279 280 281 280 281 282 282 281 282 282 283 282 281 278 281 283 285 285 283 282 283 284 284 284 284 283 284 283 282 281 282 282 283 282 283 283 283 282 281 281 279 279 280 276 274 274 273 273 273 272 272 271 270 269 268 267 266 266 267 267 267 267 268 268 268 267 267 266 266 266 266 266 266 265 265 265 265 265 264 263 263 263 263 263
281 279 279 280 279 280 280 281 281 281 282 282 282 281 281 281 281 280 281 282 282 282 282 283 283 284 283 283 283 282 281 281 282 282 282 283 283 283 282 281 281 280 280 277 274 273 273 272 271 272 271 271 270 270 268 267 267 267 266 266 267 266 267 267 267 267 266 265 265 265 265 265 265 265 264 264 264 264 264 264 264 263 263 263 263
281 280 279 278 277 278 279 279 279 280 280 280 281 281 281 281 280 280 279 280 280 281 281 282 283 283 283 282 282 282 281 281 282 282 282 282 283 283 282 282 282 281 281 278 273 273 273 272 271 271 271 270 270 269 269 268 268 267 266 265 265 265 265 266 266 266 265 265 264 264 265 265 265 264 264 264 263 263 263 262 263 262 262 263 263
277 277 277 277 278 277 278 278 279 279 279 278 279 279 280 280 280 280 280 279 279 280 280 281 281 282 283 283 283 282 281 281 282 282 282 282 282 282 282 282 282 281 281 276 273 273 272 271 271 271 270 269 270 269 268 268 268 267 267 266 265 265 265 265 266 264 264 264 264 264 264 264 264 264 263 263 262 262 262 262 262 262 262 262 262
274 277 278 277 277 278 278 278 278 278 279 278 279 279 279 280 280 281 281 280 279 280 280 280 281 281 281 282 282 282 282 281 282 282 282 282 282 282 282 281 282 282 280 276 274 272 272 271 271 271 270 269 269 268 267 267 267 266 266 266 266 265 264 263 263 263 263 263 264 264 264 263 263 263 263 263 263 262 261 261 262 261 261 261 261
275 272 270 273 277 277 277 277 277 277 277 278 278 277 278 278 278 278 279 280 280 280 280 280 280 281 281 281 282 282 282 281 282 282 282 282 282 282 282 279 278 278 278 277 275 274 273 272 270 270 270 269 268 268 267 267 266 265 264 264 264 264 263 263 263 263 262 262 262 263 263 262 262 262 262 262 261 261 261 261 261 261 260 260 261
274 276 276 274 276 276 277 277 277 277 277 276 277 277 276 277 277 277 278 278 278 279 279 280 280 280 280 280 280 281 281 281 281 282 282 282 282 282 278 277 277 277 277 277 275 274 273 273 272 270 269 268 268 267 267 266 265 265 265 264 263 263 262 262 262 262 262 262 261 262 262 261 262 261 261 261 260 259 260 260 260 260 260 260 260
275 275 275 275 275 275 275 275 275 275 275 274 275 276 276 276 275 276 276 277 277 277 278 278 277 277 278 278 279 279 280 280 281 281 282 282 282 281 279 278 277 277 276 276 276 274 272 273 272 270 269 268 267 267 266 265 265 264 264 264 263 262 262 262 262 262 261 261 261 261 261 261 260 260 260 260 260 261 260 260 260 260 260 260 259
271 273 273 272 273 274 274 274 273 273 274 274 274 274 274 275 274 274 274 275 275 275 275 275 275 276 276 276 278 277 278 280 281 281 281 281 280 280 279 278 277 277 276 277 276 274 273 273 271 269 268 268 267 266 265 265 264 263 262 262 262 261 262 261 262 261 260 260 260 260 260 260 260 260 260 259 259 260 260 260 260 259 259 259 259
272 271 271 271 272 273 273 273 273 273 273 273 273 272 272 272 272 272 272 272 272 272 272 273 274 274 275 277 277 277 277 277 278 277 278 279 279 279 279 279 277 276 275 274 274 272 271 270 271 268 267 267 266 265 264 264 263 262 262 261 261 261 261 261 260 260 260 260 260 260 260 260 260 260 260 259 259 259 259 259 259 259 258 258 259
271 272 270 271 272 272 271 271 271 272 272 272 272 272 271 271 271 271 271 271 271 272 272 273 273 274 274 275 275 276 275 276 277 277 277 277 277 278 278 277 276 275 275 275 274 272 271 270 269 267 266 265 265 264 264 263 263 262 261 261 260 260 260 260 260 260 260 260 260 259 259 259 259 259 259 259 259 259 258 258 259 259 259 258 258
270 270 268 269 269 270 270 270 270 270 270 270 270 270 270 270 270 270 270 271 271 271 271 272 272 273 273 273 275 275 275 275 276 276 276 276 276 277 277 277 276 275 274 274 274 273 270 268 267 266 265 265 264 264 263 263 262 261 260 260 260 260 260 259 260 260 259 259 259 259 259 259 258 258 257 258 259 259 259 259 259 259 259 259 258
269 269 268 269 269 269 268 268 268 268 268 268 268 269 269 269 269 269 269 269 269 269 270 270 271 271 272 273 273 274 274 274 274 275 275 276 276 276 276 276 275 274 273 273 272 272 270 268 267 266 264 264 263 263 262 262 261 261 260 260 260 259 259 259 259 259 258 258 258 258 258 258 258 258 258 259 258 258 259 259 259 259 258 258 258
267 267 267 267 267 268 267 267 267 267 268 268 268 267 267 267 267 268 268 268 268 268 268 268 269 270 270 271 272 273 272 273 271 273 273 274 275 275 275 275 274 274 273 273 272 271 269 269 267 265 264 264 263 262 262 261 261 260 260 260 259 259 259 259 259 258 258 258 258 258 257 257 257 257 257 257 258 258 258 258 257 258 258 258 258
266 266 266 266 266 266 266 267 266 266 267 266 266 266 266 267 267 267 267 267 267 267 267 268 268 268 268 269 270 270 270 271 271 272 272 272 272 273 273 274 273 272 271 271 270 271 270 267 266 265 264 263 263 262 262 262 261 260 260 260 259 259 259 258 258 258 258 258 258 257 257 257 257 257 257 257 257 256 256 257 257 257 257 258 258
266 265 266 266 266 266 266 266 266 266 266 266 267 267 267 266 266 266 266 266 266 266 267 267 267 267 267 267 268 268 269 269 270 270 270 271 271 272 272 272 271 271 270 269 269 269 266 266 266 264 263 263 262 262 261 261 261 261 261 260 259 258 258 258 259 259 259 258 257 257 257 257 256 256 256 256 256 256 256 256 256 257 257 257 257
265 265 265 265 265 265 265 266 265 265 265 265 265 265 266 266 266 266 265 265 266 266 266 266 267 267 267 267 267 267 268 268 268 269 269 270 270 271 271 271 270 270 270 268 267 266 264 264 264 263 262 261 261 260 260 260 260 260 260 260 260 260 260 260 260 259 258 258 257 257 257 257 257 257 256 256 256 256 256 256 257 257 257 256 256
264 264 264 264 264 264 264 264 265 265 265 265 265 265 265 265 265 265 265 265 265 265 265 265 266 266 266 266 266 267 267 267 267 268 268 268 269 269 270 269 269 268 268 267 265 264 263 263 263 263 262 261 260 259 259 259 259 259 259 260 260 260 260 260 259 259 258 257 257 257 257 256 256 256 256 256 256 256 256 256 256 256 256 257 256
263 263 263 263 263 263 263 264 263 263 264 264 264 264 264 264 264 264 265 265 264 265 265 265 265 265 266 266 266 266 267 267 267 267 267 268 268 268 268 268 267 267 266 265 264 263 262 261 261 261 261 261 260 259 259 259 259 258 258 259 259 259 259 258 258 258 258 257 257 257 256 256 256 256 255 255 255 256 256 256 256 257 256 256 256
262 262 262 262 262 262 263 262 262 263 263 263 263 263 263 263 263 263 264 264 264 264 264 264 265 265 265 265 266 266 266 266 266 266 266 267 267 267 267 266 265 266 265 263 263 262 261 260 260 260 260 261 260 260 259 259 258 258 258 258 258 257 257 257 257 257 257 257 256 256 256 255 255 255 255 255 254 255 255 255 256 256 256 256 256
261 261 261 261 261 261 262 262 262 261 262 262 262 261 262 262 262 262 263 263 263 263 264 264 264 264 265 265 265 265 265 265 265 265 265 266 266 266 265 265 264 264 263 263 262 261 260 260 259 259 260 260 260 260 259 259 258 258 258 258 258 258 257 257 257 256 256 256 255 255 255 255 255 254 254 254 254 254 254 255 255 256 256 255 255
260 260 260 260 260 260 260 260 260 260 260 260 260 261 261 261 261 262 262 262 262 263 263 263 264 264 264 264 264 264 264 264 265 265 265 265 264 264 264 264 264 263 263 263 263 262 261 260 259 259 259 259 259 259 259 259 259 259 258 258 258 258 257 257 256 256 256 256 256 255 255 254 254 253 254 254 254 254 254 255 255 255 255 255 255
Wind_Speed
10 13 12 14 13 14 12 11 11 9 9 10 10 10 10 10 11 11 9 12 10 11 11 12 12 12 12 11 11 11 9 8 6 7 7 7 7 8 8 8 7 7 7 6 6 7 7 8 7 6 6 6 6 6 5 5 4 3 3 3 4 3 2 2 3 4 4 2 3 4 4 4 5 4 6 6 7 6 7 7 7 7 7 7 9
9 11 11 11 13 13 12 10 10 9 10 10 11 10 10 9 10 9 11 11 10 12 12 11 11 12 13 13 11 11 11 9 8 8 8 8 7 6 8 10 9 6 7 7 6 6 8 9 7 7 7 7 7 6 6 5 5 5 4 3 3 3 2 2 3 3 5 3 4 4 5 4 6 3 6 8 8 8 8 8 6 7 7 8 9
8 9 10 11 11 10 8 9 9 10 10 9 10 10 9 10 10 11 10 10 10 11 12 11 11 11 12 12 12 11 11 11 10 9 10 10 10 8 8 10 10 9 8 8 8 7 8 8 9 8 7 7 7 6 6 5 4 5 5 3 3 3 3 2 2 3 4 5 4 4 5 5 5 6 7 7 8 8 9 8 7 6 6 8 9
7 9 10 10 9 7 8 7 9 10 11 10 11 11 10 10 10 11 11 10 11 9 10 12 11 12 12 10 11 12 11 12 10 11 13 12 11 10 9 9 9 8 8 9 9 9 9 8 8 9 8 7 6 6 5 5 5 5 5 4 3 3 3 3 4 3 3 4 3 4 5 6 6 6 6 7 8 9 8 8 7 7 8 7 9
7 8 9 8 7 7 8 8 9 10 11 9 11 11 10 9 10 11 10 10 10 10 8 8 12 12 12 13 12 10 11 11 11 10 10 11 11 10 10 10 10 9 10 10 10 10 8 8 8 8 8 7 6 6 6 7 5 5 4 4 3 3 3 3 3 3 3 5 5 3 4 5 6 6 6 7 9 8 8 7 7 8 7 7 7
7 8 8 8 7 8 8 8 9 10 10 9 10 9 9 9 9 8 9 11 9 8 10 9 10 11 11 12 11 10 10 10 11 10 10 10 10 10 10 10 9 10 10 10 9 7 8 7 8 8 8 7 7 6 7 7 6 5 5 4 3 3 3 3 3 3 3 4 4 5 4 5 6 5 5 7 9 9 8 7 8 6 6 7 7
6 8 8 9 7 8 8 8 7 8 8 7 6 7 8 8 9 9 8 9 11 10 8 9 9 11 10 10 10 10 10 10 10 10 11 10 12 11 10 9 10 10 10 8 7 6 6 6 7 7 6 6 7 7 7 7 5 6 5 5 4 3 3 3 2 2 3 3 4 4 4 4 5 6 6 6 7 7 9 11 8 4 5 8 10
7 7 7 7 8 8 7 6 6 6 6 5 6 7 7 7 8 7 8 10 10 11 13 11 9 9 10 10 9 9 10 10 9 11 12 13 11 10 10 11 12 10 7 7 6 6 5 5 6 5 5 5 6 7 7 7 6 6 5 4 4 4 3 2 2 1 2 2 3 3 4 5 4 4 5 6 7 6 6 9 13 13 11 8 8
7 6 6 7 7 6 6 5 5 6 6 6 7 7 7 7 7 8 8 9 9 10 9 11 11 9 9 9 9 9 11 12 11 13 15 11 10 12 12 11 10 9 8 7 6 6 6 5 5 4 4 5 6 5 5 5 6 6 5 5 5 4 3 2 1 1 1 1 3 3 3 4 4 6 7 7 8 9 10 10 11 11 12 12 10
5 5 6 6 4 3 4 3 4 5 6 8 8 8 8 7 8 8 8 8 8 8 9 9 11 14 12 9 10 10 11 11 13 17 15 11 13 11 9 9 9 9 9 9 7 6 6 5 4 7 8 8 8 8 8 6 3 4 5 5 5 4 3 3 1 1 1 1 2 3 3 4 5 6 6 7 8 9 11 11 12 12 12 12 11
5 5 6 3 2 2 2 3 2 4 5 5 5 6 7 7 7 8 8 8 9 9 9 9 10 11 12 13 13 11 11 9 15 15 17 16 10 9 10 9 9 9 9 9 9 8 7 7 7 7 8 8 8 9 9 9 8 8 5 3 2 4 4 4 3 2 2 1 1 2 3 4 5 5 6 7 8 9 10 11 11 11 11 12 14
6 6 5 4 4 4 4 3 3 2 2 4 5 5 6 7 8 8 8 9 7 7 10 11 11 11 10 10 10 10 10 10 16 17 16 16 14 10 8 9 8 8 8 8 8 8 9 8 7 6 6 7 8 8 8 9 9 8 6 5 4 3 3 2 3 2 2 2 2 2 2 4 5 6 6 7 9 10 10 10 11 10 12 12 11
6 6 5 6 6 5 5 5 5 4 4 5 5 6 7 7 8 8 9 8 8 10 10 10 10 9 9 10 9 9 9 12 16 18 16 17 16 12 7 8 9 9 9 8 9 9 9 8 7 5 5 7 7 7 7 7 8 7 5 5 4 4 4 3 1 2 2 2 2 3 2 3 5 5 7 9 9 10 10 9 9 10 10 11 11
7 6 6 6 6 5 5 6 6 6 5 5 5 6 6 8 6 6 5 5 8 8 7 9 7 8 8 8 8 7 7 13 18 18 17 18 15 10 7 8 8 8 8 9 8 9 9 9 8 7 7 7 6 7 7 7 7 6 5 4 4 5 4 4 3 3 3 3 3 3 3 3 5 7 8 8 9 9 9 10 10 11 11 12 14
8 8 8 7 7 6 6 6 7 6 7 7 7 7 7 6 5 4 4 6 8 8 8 7 5 6 7 7 8 8 8 16 19 19 18 19 15 8 8 7 7 7 6 7 8 8 9 7 8 8 9 8 6 8 8 7 6 5 4 4 4 4 3 4 4 4 3 3 3 3 3 4 5 6 7 7 8 9 8 10 11 12 13 14 12
8 8 7 7 7 6 7 7 6 6 6 6 6 7 6 6 7 5 5 4 3 4 4 5 8 8 8 9 11 10 9 19 19 19 20 18 15 6 8 8 7 7 7 7 6 6 7 7 7 8 9 8 10 12 9 7 7 6 5 5 4 3 3 2 2 4 3 2 2 2 3 4 7 7 7 7 7 8 8 8 9 9 10 11 10
8 8 8 8 8 8 8 8 8 8 7 7 7 6 7 6 4 4 6 6 7 7 7 7 7 7 8 8 9 9 10 17 18 19 19 18 13 6 6 6 6 7 7 6 6 6 6 7 7 7 8 8 11 13 12 10 7 7 6 6 4 3 3 4 7 4 3 3 3 4 5 6 6 7 8 8 7 7 6 7 7 7 9 10 10
7 7 8 8 8 7 7 8 7 7 7 8 8 6 5 4 6 6 7 7 6 5 6 6 6 6 7 8 8 8 8 14 18 17 16 18 8 9 8 7 7 6 6 6 5 5 5 6 7 7 8 8 13 14 13 10 7 7 7 7 5 5 4 5 5 4 2 1 1 1 2 3 4 5 5 6 7 6 4 6 7 7 8 8 9
5 6 6 6 6 6 7 6 5 6 7 7 6 6 6 6 5 4 3 3 4 5 5 5 6 5 6 6 7 8 8 12 17 15 15 16 12 6 7 7 8 6 6 6 5 4 6 7 8 7 7 10 15 13 14 11 7 8 7 7 6 7 6 6 6 4 2 0 0 1 1 1 2 3 3 6 6 5 5 6 6 6 7 8 9
5 5 4 5 5 4 4 5 5 6 7 6 5 5 4 4 5 5 4 4 4 4 5 4 8 4 3 4 6 6 8 8 13 14 15 16 14 10 6 9 8 8 6 7 7 6 6 6 8 11 12 14 14 14 14 13 8 8 8 7 7 7 5 5 5 3 1 0 1 1 1 1 2 2 3 3 4 4 5 4 5 6 7 8 8
4 4 4 4 3 4 4 5 6 5 5 6 5 5 4 5 5 5 5 3 4 3 4 3 3 3 3 2 3 3 6 9 11 14 15 16 16 11 7 6 7 8 9 7 7 8 8 7 7 12 15 14 14 14 14 14 12 8 8 7 6 5 7 4 4 4 2 1 1 1 1 1 1 2 2 2 2 3 4 4 5 5 6 7 9
5 5 5 3 3 3 3 3 4 5 5 5 6 5 3 4 5 6 4 4 6 6 4 4 4 4 3 2 2 3 4 7 6 14 13 15 16 13 7 7 7 9 8 6 6 6 8 8 7 13 17 15 14 14 14 14 14 9 8 9 8 9 5 4 3 3 2 2 1 1 1 1 1 1 2 3 3 4 4 4 5 6 6 7 8
5 5 3 3 3 3 3 4 4 4 5 5 6 6 5 5 4 4 5 6 6 6 5 4 5 5 4 4 3 3 4 5 9 9 13 14 15 15 9 6 10 6 8 9 10 8 7 7 7 13 16 15 14 14 14 14 12 8 10 10 9 9 6 3 3 3 2 2 2 2 2 2 1 2 3 3 3 3 4 5 6 6 7 8 10
2 3 3 3 2 3 2 2 2 2 3 4 4 6 6 6 6 5 6 7 7 6 6 6 6 6 6 5 4 4 4 4 7 10 11 14 14 14 13 11 13 6 5 5 6 6 7 7 8 16 16 15 14 14 14 13 9 11 12 11 10 8 4 4 3 3 3 2 3 3 3 2 2 3 3 3 3 4 5 6 7 7 8 8 10
2 2 2 3 4 3 3 3 3 2 3 4 5 6 6 7 6 5 6 6 6 7 6 7 7 7 6 6 6 5 6 6 6 9 11 12 13 13 12 12 13 11 6 3 4 5 6 10 12 15 14 14 14 14 12 13 12 12 12 12 10 4 4 4 4 4 3 4 4 3 3 3 3 3 4 4 5 5 5 5 6 7 8 9 10
1 2 2 2 2 4 5 4 4 4 5 4 4 4 5 6 6 6 6 6 6 6 6 7 7 7 7 6 6 6 7 6 6 6 7 8 9 12 12 13 12 12 4 4 7 9 11 12 14 14 13 12 11 10 9 9 12 13 11 10 5 4 4 4 4 5 4 4 4 4 3 2 3 3 3 4 4 4 3 5 5 5 5 6 7
2 2 1 1 1 2 4 3 4 3 4 4 5 5 6 6 6 6 7 7 7 7 7 8 8 8 7 7 5 6 7 7 6 7 7 7 7 8 9 9 11 10 6 5 8 7 9 9 8 10 8 13 9 6 6 9 9 8 7 6 4 4 4 4 4 4 4 3 3 3 3 3 2 3 4 3 3 3 3 4 5 5 5 6 7
1 2 2 1 0 1 1 2 3 3 4 5 5 5 6 7 8 9 10 10 10 9 8 8 9 9 9 7 7 6 7 7 8 10 10 9 8 8 8 7 7 7 7 7 7 7 7 8 9 7 5 6 6 7 6 7 7 5 5 4 4 3 4 4 3 2 3 2 2 2 3 4 4 4 3 3 3 3 2 3 4 5 5 5 6
3 3 1 1 1 0 0 1 2 1 2 2 2 3 5 6 6 5 3 4 6 7 9 9 8 7 7 9 10 9 7 9 13 11 9 10 9 9 10 10 8 8 8 11 7 6 6 7 7 7 9 9 8 6 6 6 5 5 4 5 5 4 5 4 5 4 4 3 3 3 4 3 3 3 3 3 3 2 2 3 4 4 5 4 5
2 2 1 0 1 1 1 1 1 1 1 2 2 1 6 6 4 2 3 0 4 6 4 4 3 3 5 5 5 6 7 2 7 12 10 12 12 10 5 3 6 7 11 16 8 6 6 6 7 8 9 8 9 8 8 7 6 6 6 7 6 5 5 5 4 4 4 3 3 3 4 3 3 3 3 4 3 2 2 3 3 4 4 5 5
1 1 1 1 2 1 1 1 1 1 1 1 1 2 1 1 5 6 6 4 1 2 1 3 3 5 4 4 3 4 3 4 11 14 14 15 15 14 11 11 13 13 17 12 7 7 8 8 8 8 8 8 8 8 7 7 7 7 7 6 5 6 5 5 5 4 4 4 3 3 4 4 3 3 3 3 3 3 2 2 3 3 4 4 5
2 1 1 1 1 1 1 1 1 1 1 1 1 2 2 2 1 3 3 2 1 1 0 2 3 5 6 5 4 4 4 6 11 16 17 17 17 16 15 14 17 17 19 13 6 7 6 7 7 8 8 8 8 6 6 7 7 7 6 6 6 5 6 5 5 5 4 4 3 4 4 4 3 3 4 3 3 3 3 2 2 3 4 4 5
2 1 1 1 1 1 1 1 1 1 1 1 1 2 2 3 3 2 2 2 0 1 2 3 4 4 7 7 8 7 6 8 12 15 17 17 16 16 16 16 17 18 18 12 9 7 6 7 7 7 8 9 7 7 7 6 6 6 6 6 6 5 5 4 5 4 4 4 3 4 4 4 3 3 4 3 3 3 3 3 2 3 4 4 4
2 1 1 1 1 0 0 0 0 1 1 1 1 1 2 3 3 2 2 1 1 2 3 5 5 6 7 8 9 11 11 12 13 14 16 17 18 18 18 14 18 20 19 11 8 9 8 8 8 7 7 5 5 5 6 6 6 5 4 4 3 4 5 5 4 4 4 4 4 4 4 4 3 3 3 3 3 3 3 3 3 3 3 3 4
2 3 4 2 1 1 1 1 1 1 1 1 1 1 2 2 2 3 3 3 3 3 2 2 5 7 5 6 10 11 12 12 12 13 15 16 18 18 17 11 12 14 16 14 11 10 9 12 7 6 6 7 8 6 7 6 5 6 6 5 5 5 5 5 5 5 5 4 4 5 5 4 3 3 3 3 3 3 3 3 3 3 3 4 4
3 2 2 2 1 1 1 0 0 1 1 1 1 2 3 2 3 3 3 3 3 3 2 1 0 2 6 5 6 8 10 10 11 14 15 17 18 20 15 14 12 13 13 14 10 8 6 8 9 7 5 5 5 6 6 6 6 6 6 6 6 6 6 6 5 5 5 4 4 5 4 4 4 3 3 4 5 5 4 4 3 4 4 4 4
2 2 2 2 2 1 1 1 1 1 1 0 1 1 2 2 2 2 2 3 3 3 3 1 0 1 3 4 5 8 10 11 12 13 16 17 20 17 13 11 11 11 11 12 10 8 8 9 7 4 5 6 6 6 5 6 6 5 5 5 5 6 6 6 5 5 5 5 5 5 5 4 4 4 4 4 4 4 4 4 4 5 5 5 6
2 2 2 2 1 1 1 1 1 1 0 0 0 0 1 1 2 2 2 3 3 3 3 3 3 3 4 3 4 3 5 9 11 11 13 15 14 14 14 12 11 12 9 8 7 7 8 7 5 4 4 5 6 5 6 6 5 5 5 5 5 4 6 5 5 5 5 4 5 5 5 4 4 4 4 5 5 4 4 4 4 4 4 5 5
2 4 5 4 3 2 1 1 1 1 0 0 1 0 1 1 2 2 2 3 3 3 3 3 3 4 4 1 2 4 5 6 8 9 10 11 12 13 13 12 10 10 7 5 7 7 6 5 6 5 4 5 5 6 6 5 5 5 5 5 5 5 6 5 5 6 5 6 5 4 4 4 4 4 4 4 5 5 5 5 5 4 4 4 4
3 3 4 6 2 2 2 1 2 2 1 1 1 1 2 2 2 2 2 3 3 3 4 4 5 4 3 2 3 4 6 7 8 9 9 10 10 11 11 10 9 7 9 8 10 10 9 5 3 4 5 5 6 6 5 5 5 5 5 5 6 6 6 6 6 6 6 5 5 4 4 4 4 3 4 5 5 4 5 5 5 5 5 5 5
3 3 3 4 4 3 2 2 2 2 2 1 1 1 2 2 3 2 3 3 4 4 5 4 5 4 3 3 8 8 7 7 7 7 8 8 8 9 10 10 8 8 9 9 10 8 6 4 4 4 4 5 5 5 5 5 5 5 5 4 4 4 4 4 5 5 5 5 5 4 4 4 4 4 5 5 4 5 5 6 6 5 5 5 5
3 3 3 3 3 2 2 2 1 2 2 1 2 2 1 2 3 3 3 4 3 4 5 5 5 4 3 8 9 12 10 8 8 8 8 7 6 8 9 9 4 6 5 9 7 8 8 7 6 5 5 6 6 5 5 6 6 6 6 6 6 6 6 6 6 6 5 5 5 5 4 4 4 5 5 5 4 5 5 5 5 4 5 5 5
3 2 2 2 2 2 2 2 3 2 3 2 2 3 2 3 3 3 4 4 4 5 5 6 5 4 4 6 8 11 9 9 8 9 8 9 8 7 7 6 3 5 4 5 6 6 4 8 8 5 6 7 7 7 8 7 7 7 6 6 6 6 6 5 5 5 5 5 5 5 5 5 5 5 5 5 5 5 6 5 5 5 6 5 5
2 2 1 2 1 2 1 2 2 2 3 3 4 3 3 3 4 4 5 5 6 5 6 6 6 5 5 4 6 7 8 8 9 9 9 7 6 6 6 4 3 4 4 5 5 5 9 6 4 4 5 4 6 8 6 6 6 7 7 6 6 5 5 5 5 6 6 6 5 5 5 6 7 6 6 6 5 5 6 6 5 5 6 5 5
3 3 3 3 2 3 3 3 2 3 3 3 4 4 3 4 4 4 5 5 4 5 6 6 6 7 6 6 6 7 7 8 8 8 9 9 9 8 6 4 4 5 5 4 5 7 5 6 8 6 8 7 8 8 6 5 5 5 5 6 6 7 7 7 7 6 5 6 5 5 5 6 7 7 6 6 6 6 6 5 5 6 6 6 5
3 3 3 3 3 2 3 3 3 3 4 3 4 4 4 4 5 4 4 4 5 5 6 6 6 6 6 7 7 6 7 7 8 8 7 8 9 8 7 5 4 4 4 3 4 6 4 5 4 5 5 4 5 5 5 4 4 4 5 5 6 6 5 5 4 5 6 6 6 5 5 5 6 7 7 6 6 6 6 5 5 6 6 6 6
3 3 2 2 3 2 2 3 3 4 4 3 4 4 4 4 4 4 4 5 5 5 6 6 6 6 6 6 7 7 7 7 8 8 8 8 8 9 7 5 5 5 4 4 3 4 4 5 5 7 6 4 4 5 5 5 5 5 5 5 5 5 4 4 4 4 4 4 5 4 5 5 6 6 7 6 6 6 6 6 6 6 6 6 6
3 2 3 2 3 3 3 3 3 4 3 3 3 4 4 4 4 4 5 5 5 5 6 6 6 6 6 7 6 7 7 7 8 7 8 9 8 8 5 4 5 5 3 3 3 3 4 4 5 5 5 5 5 6 5 5 5 5 5 4 4 4 4 5 4 5 5 5 5 5 6 7 6 6 6 6 6 6 6 6 5 6 6 6 6
3 3 2 3 3 3 3 3 3 3 3 4 4 4 4 4 5 5 5 5 5 6 6 6 6 6 6 6 6 7 7 7 8 7 8 8 8 8 6 5 4 4 3 3 3 4 4 4 5 5 5 5 5 5 5 5 5 5 5 5 6 9 9 10 6 6 6 5 6 7 7 6 6 6 6 6 6 6 6 6 6 5 5 6 6
3 3 2 3 3 3 3 3 3 3 4 4 4 4 5 5 5 5 5 5 5 5 5 6 6 6 6 7 6 6 7 7 7 7 8 8 8 8 6 5 4 4 3 3 3 3 3 4 4 4 5 4 4 4 5 5 6 6 6 6 10 14 13 15 13 10 9 7 7 7 7 6 6 6 6 6 6 7 7 7 6 6 6 6 6
3 3 3 3 3 3 3 3 3 4 4 4 4 4 5 5 5 5 5 6 6 6 6 6 6 6 6 6 6 6 6 7 7 7 7 7 7 7 7 5 5 4 4 4 4 3 4 4 4 4 5 5 5 5 5 6 6 6 8 11 14 13 13 12 9 12 13 9 6 6 6 7 7 7 7 7 7 7 8 7 6 6 6 6 6
Wind_Direction
232 231 228 226 219 215 212 208 206 201 199 204 205 198 195 194 194 191 175 177 173 178 180 178 175 174 167 167 167 166 166 159 157 151 149 158 167 166 161 163 136 153 144 136 136 145 148 148 143 138 145 153 159 161 158 150 142 137 145 146 140 146 187 203 232 266 278 256 291 301 315 314 304 300 301 308 311 311 307 303 301 297 294 294 294
227 232 231 230 224 218 212 203 200 196 195 195 201 198 196 194 187 174 182 181 180 181 181 179 176 175 171 170 169 168 169 160 157 155 151 156 160 162 166 168 154 149 147 143 143 140 147 150 142 144 159 165 164 159 155 156 159 149 152 154 146 147 155 191 231 254 279 290 292 310 303 313 304 305 313 315 312 312 308 305 300 298 298 299 303
236 233 230 228 225 218 205 200 194 194 194 194 197 194 190 188 182 180 182 181 186 184 180 176 174 173 171 170 169 166 168 166 157 157 158 159 167 168 165 164 157 154 153 149 150 145 148 153 159 163 168 166 163 155 154 155 154 143 138 141 142 144 165 203 217 247 267 286 291 296 309 314 304 309 314 308 305 306 305 305 304 301 293 297 296
239 236 234 232 223 212 207 197 196 196 198 196 197 196 190 188 181 184 183 177 181 186 181 172 169 168 168 156 158 158 167 160 164 170 172 170 169 168 165 157 155 157 159 159 158 164 164 159 169 173 175 168 160 154 156 154 150 142 139 144 151 163 178 186 218 241 263 283 281 299 303 307 304 307 309 307 311 312 306 301 300 302 300 295 294
239 236 233 228 220 214 209 198 198 200 200 198 200 194 190 184 182 184 175 178 179 167 169 173 168 166 165 154 158 164 166 165 163 166 165 170 168 163 164 153 154 160 167 172 173 172 165 170 165 173 178 160 156 155 155 152 147 144 143 149 160 164 183 200 207 228 255 272 290 282 285 283 292 299 310 319 319 313 309 306 311 305 301 300 298
240 239 234 228 220 216 210 205 206 204 203 201 198 190 184 180 179 179 174 171 162 168 167 169 171 166 164 168 165 161 162 165 165 164 161 158 156 153 130 130 155 164 174 179 176 167 167 165 165 175 176 165 156 149 148 147 143 144 148 153 158 177 190 195 207 223 249 269 279 296 288 301 307 307 324 328 320 319 316 316 314 308 313 314 312
234 230 229 226 219 218 211 209 208 206 202 197 184 180 180 177 173 172 171 164 162 161 170 167 168 159 159 159 163 159 163 166 166 162 159 159 150 151 154 154 161 170 180 168 162 151 154 159 168 179 175 162 150 152 149 148 146 147 152 153 165 183 190 188 201 227 252 274 278 280 298 298 302 311 331 323 312 312 323 327 322 317 315 321 318
236 228 221 223 218 217 213 204 201 198 189 179 179 181 176 173 175 164 159 163 169 169 166 168 163 153 155 164 163 162 162 164 165 161 131 136 155 161 159 163 170 172 155 147 140 147 155 158 166 172 162 152 150 148 151 149 146 147 152 159 169 181 183 181 195 227 258 274 287 301 309 308 312 322 323 330 328 326 346 336 324 325 326 324 315
238 234 230 230 225 217 207 199 192 181 174 172 172 174 174 170 163 162 168 169 170 170 165 157 153 150 156 162 162 167 170 163 154 155 146 159 159 164 168 168 159 147 143 136 137 148 152 145 150 153 122 108 107 121 131 137 150 151 156 166 175 173 165 172 178 230 262 279 290 304 309 317 329 337 341 346 346 333 329 330 314 315 319 318 320
237 245 241 241 243 233 214 199 189 178 174 176 178 171 167 165 161 165 169 166 163 161 158 165 160 156 159 167 167 165 161 160 168 164 164 160 166 169 162 153 150 145 140 137 142 147 141 129 115 113 124 125 122 126 130 128 109 131 152 167 175 162 152 154 184 205 248 270 301 320 317 324 335 341 336 332 330 327 326 328 321 321 322 316 307
224 231 238 244 239 231 216 212 185 188 187 169 160 159 156 155 159 162 161 162 163 163 159 162 167 162 158 149 154 165 155 165 165 166 167 166 163 155 153 149 147 142 142 148 152 148 140 133 133 136 132 131 135 137 134 129 119 110 113 137 154 159 156 162 179 189 210 266 292 308 311 313 325 337 328 330 331 330 323 320 316 319 324 328 321
211 218 216 186 190 193 198 181 185 186 158 164 159 158 153 157 163 163 160 159 162 163 168 169 162 127 126 157 169 159 133 162 167 169 172 173 174 161 151 145 146 145 147 150 148 145 145 144 149 153 159 156 150 144 139 132 127 128 140 148 136 133 159 169 171 188 206 232 269 295 308 312 325 326 327 331 327 321 316 313 310 313 314 312 307
201 205 198 191 193 190 180 180 178 166 174 164 162 158 164 166 167 166 171 170 149 165 166 152 141 117 153 162 167 168 167 169 170 173 176 174 171 164 143 144 144 149 154 152 150 150 149 149 151 158 151 150 155 150 146 140 131 137 148 146 145 153 171 177 230 220 207 216 237 272 288 322 314 315 325 320 318 308 309 306 305 306 302 297 297
199 202 191 198 193 185 179 178 177 174 163 161 162 167 170 175 173 169 152 140 156 155 145 153 147 154 161 161 159 165 166 177 176 175 176 172 167 157 141 142 141 146 152 153 152 153 154 153 155 160 163 168 161 154 155 149 148 160 177 178 168 172 181 194 217 239 235 225 234 251 293 310 299 306 312 314 308 304 304 299 304 301 298 291 296
201 197 193 193 186 183 179 178 176 169 167 167 169 173 176 165 157 153 150 156 157 161 158 159 161 160 167 170 167 172 185 176 180 178 173 174 161 135 134 124 132 141 145 150 151 149 153 155 160 160 163 168 166 164 160 160 156 165 171 183 183 179 191 197 197 190 182 214 236 265 289 303 301 304 306 306 301 297 298 297 299 297 294 293 287
204 195 197 191 188 183 177 178 173 169 167 167 173 175 174 170 164 154 149 154 155 150 155 164 167 175 179 179 183 185 179 177 177 174 171 166 151 134 138 140 139 145 150 153 149 146 151 155 156 161 163 164 169 172 168 156 158 167 174 188 186 192 209 202 203 214 206 228 253 306 307 302 300 295 298 302 302 300 298 297 294 294 300 302 296
209 198 197 191 189 184 183 178 175 172 174 175 182 180 171 166 164 161 160 168 167 173 174 178 179 178 177 178 178 176 171 174 172 168 166 157 149 139 132 133 138 143 149 144 143 146 158 164 165 159 160 165 171 173 168 159 159 175 181 189 188 202 216 187 192 165 75 32 354 327 306 298 298 302 307 307 300 305 303 298 296 312 308 307 305
210 198 202 193 188 186 186 183 179 177 176 186 185 181 173 169 170 171 173 171 174 176 170 176 180 180 177 180 181 169 165 172 170 164 158 163 148 136 146 141 138 140 133 136 141 152 160 162 163 163 164 166 172 174 172 169 169 180 185 186 188 206 211 189 186 189 121 69 293 318 323 315 322 319 317 320 314 312 294 288 302 311 300 301 301
237 220 212 196 188 183 183 184 185 181 185 187 180 176 176 172 166 168 178 169 165 166 172 168 174 173 177 177 167 167 164 169 172 164 160 160 154 142 141 141 141 147 144 146 148 145 160 176 179 176 171 167 173 176 179 179 180 188 187 182 196 204 204 182 193 210 228 307 205 64 321 323 332 326 322 318 314 299 283 284 298 301 296 296 297
245 241 223 194 179 178 178 181 186 183 184 175 170 172 160 156 159 169 165 175 160 154 167 161 167 155 143 164 167 171 165 169 174 162 161 161 161 157 148 146 151 152 154 154 155 166 175 179 189 191 179 174 177 180 185 185 188 193 188 194 198 205 180 167 188 194 167 203 318 309 286 325 329 319 310 312 302 279 279 288 294 293 290 288 288
226 220 202 188 189 184 182 183 181 185 180 174 163 159 169 162 155 164 162 155 150 147 136 124 124 126 143 140 150 155 172 170 175 164 163 165 166 158 165 161 149 150 156 158 167 168 179 185 186 195 186 180 182 185 188 192 196 198 201 204 207 177 158 167 162 138 144 163 222 225 238 297 310 300 291 284 278 275 287 296 287 283 281 281 286
213 202 191 187 181 177 183 180 179 175 169 160 160 161 154 146 158 164 160 148 131 133 137 145 151 142 137 139 139 144 163 177 167 172 167 169 172 174 170 178 156 147 145 159 166 179 184 181 179 191 187 183 185 189 191 198 201 202 209 204 194 177 167 159 157 157 148 160 189 220 209 244 268 287 285 275 264 271 287 286 284 283 279 273 271
198 203 194 174 171 182 183 180 177 165 170 172 164 161 154 153 146 155 143 137 134 138 142 148 147 151 149 162 163 161 158 169 179 176 174 170 176 186 187 151 166 160 155 168 185 181 174 179 180 182 185 184 187 190 195 199 194 205 204 198 190 176 165 168 153 149 148 151 186 220 208 214 241 253 263 261 272 282 285 288 287 283 277 272 271
148 158 176 171 159 178 176 176 171 171 167 158 157 154 163 161 159 166 158 156 159 161 169 164 165 163 168 165 167 169 171 168 182 186 180 178 181 183 184 177 174 184 185 175 163 162 169 179 178 180 185 186 190 194 198 199 197 206 200 194 183 171 169 160 164 149 145 169 200 211 211 206 221 241 242 258 272 288 287 284 280 278 274 275 274
133 144 131 145 165 153 147 165 167 172 159 164 168 174 166 163 162 163 163 171 171 172 170 169 175 175 174 173 173 174 177 178 178 186 187 184 184 181 178 175 186 184 184 163 136 165 171 164 167 177 180 185 191 197 202 198 200 201 194 183 175 186 178 177 163 156 167 192 202 207 210 211 220 239 257 274 287 285 275 276 278 274 271 268 264
77 95 112 141 127 131 138 137 140 142 157 168 174 168 158 171 172 168 177 184 180 176 172 172 179 177 181 181 177 173 177 179 180 175 182 184 187 182 174 181 185 186 157 147 160 160 163 166 168 175 181 188 191 196 197 191 193 189 183 180 195 191 181 170 171 172 186 188 195 207 211 210 228 237 261 269 264 265 277 288 294 290 288 287 286
61 51 39 63 85 142 159 169 160 157 166 171 172 171 168 176 173 171 184 184 184 185 179 181 184 187 189 182 165 160 177 187 183 179 184 184 182 174 178 178 171 162 151 160 162 166 167 164 171 176 186 194 182 150 157 176 176 186 183 196 200 190 184 185 186 180 179 178 192 207 210 221 235 240 240 241 255 263 282 291 293 294 302 301 295
84 90 87 72 155 185 219 142 161 174 181 181 180 180 185 187 187 188 189 188 183 188 184 187 190 186 188 173 164 171 185 193 194 190 187 181 180 179 177 168 170 175 167 168 162 154 156 167 170 174 143 146 169 194 186 183 183 182 189 186 194 189 180 165 163 180 185 177 185 201 229 222 224 225 233 245 248 260 277 289 293 296 299 300 293
54 62 62 82 102 119 241 182 225 209 188 204 214 200 193 196 201 212 220 200 194 187 187 198 199 194 182 174 173 185 191 200 210 194 185 184 177 166 177 186 177 181 178 150 135 138 150 163 172 174 185 187 184 187 187 188 192 186 185 187 183 183 181 185 190 192 178 172 196 210 224 227 228 228 232 247 248 254 281 289 290 292 297 289 282
55 56 35 52 62 177 199 193 239 247 215 215 221 293 5 3 345 281 226 329 332 317 281 236 220 195 200 209 195 190 196 211 105 164 180 181 191 192 188 159 163 150 156 159 146 149 172 176 185 185 191 189 193 192 192 187 182 185 193 198 191 187 183 189 191 179 167 179 189 210 228 227 227 227 234 243 259 259 274 284 284 297 294 298 297
45 43 19 15 12 334 335 267 217 254 250 244 223 223 218 90 43 24 10 52 62 58 22 264 244 231 221 227 219 277 1 116 155 184 191 198 196 193 183 176 167 163 168 156 166 184 186 190 195 197 200 197 198 195 179 179 188 185 185 183 189 184 183 184 189 170 169 176 189 211 225 226 228 234 237 247 256 273 276 275 274 286 286 291 295
7 25 28 21 42 330 329 332 336 272 272 263 256 245 230 228 218 76 66 64 69 165 149 174 186 193 203 213 189 204 183 180 184 192 199 200 201 199 192 185 192 184 185 171 172 201 196 198 199 201 198 202 211 191 178 187 189 187 169 173 190 185 181 186 178 166 173 176 182 206 218 219 227 234 244 244 253 266 262 272 274 274 285 282 285
44 40 53 39 42 33 324 326 293 284 272 268 265 255 250 245 244 224 134 117 211 252 238 208 203 212 207 204 194 197 187 189 196 198 200 201 201 205 203 204 201 194 184 189 208 206 201 208 214 209 196 210 202 189 196 193 190 184 185 182 177 176 174 166 153 165 179 181 178 208 217 215 223 241 244 242 241 255 262 262 264 269 271 275 282
52 24 13 35 11 2 3 277 270 270 285 285 270 268 267 281 289 297 265 233 205 230 230 235 230 225 227 218 209 209 206 202 202 199 198 199 199 199 198 206 207 204 200 206 199 212 206 204 215 210 204 202 196 181 191 193 187 182 180 182 155 146 143 142 164 182 188 189 197 210 212 213 211 226 246 246 244 245 254 255 258 261 267 275 285
64 81 68 30 2 6 354 358 340 324 316 284 265 263 268 282 284 278 275 270 264 254 238 206 212 220 228 230 227 224 222 219 214 208 203 202 200 202 198 203 207 212 215 220 215 214 212 219 212 214 204 205 206 189 195 185 180 182 181 176 163 160 156 173 180 180 185 189 198 208 210 204 206 225 235 244 249 251 256 256 254 261 266 278 281
41 41 48 57 34 38 39 37 27 352 337 327 329 315 314 298 277 277 284 285 284 283 284 242 211 216 224 242 244 235 233 229 225 218 208 200 199 196 198 208 209 212 214 218 216 214 211 224 225 223 202 211 201 201 201 190 191 183 181 169 171 168 169 176 179 180 185 189 201 203 203 209 207 204 230 245 240 240 249 251 258 260 265 267 281
48 46 44 33 21 17 26 39 41 26 13 310 300 289 290 287 291 292 286 283 279 279 279 294 11 267 242 237 237 237 233 230 228 223 218 214 208 203 210 211 216 217 217 220 217 210 213 225 222 209 195 201 203 197 192 196 186 176 173 173 169 166 174 171 173 171 177 194 200 198 198 199 196 202 217 239 252 247 245 244 247 256 256 271 284
52 52 47 39 35 39 23 28 50 65 31 3 310 285 277 288 292 293 291 286 294 293 289 285 267 262 247 243 189 206 237 232 231 230 222 216 212 213 217 221 223 225 222 218 211 212 221 218 200 195 195 189 202 193 194 198 185 178 170 169 174 176 165 162 176 183 191 199 200 199 198 202 199 199 216 231 242 245 252 251 253 258 267 264 261
58 60 46 34 35 29 16 15 26 35 19 357 328 325 281 279 268 259 260 264 269 255 260 258 250 244 246 218 185 216 215 230 217 218 214 213 213 217 222 227 223 223 220 215 222 222 217 208 211 198 194 196 198 200 193 192 177 175 174 166 171 164 174 180 181 188 189 200 198 196 194 201 199 202 214 227 237 242 248 252 250 251 256 261 265
19 20 19 9 11 21 16 9 2 353 358 351 329 328 306 279 272 268 262 261 266 265 262 257 254 247 240 243 240 226 228 233 232 226 220 217 217 219 222 226 224 214 219 223 223 227 230 221 182 175 195 192 197 198 196 183 180 171 170 179 173 176 182 178 182 185 195 195 191 193 194 194 201 203 220 232 233 240 245 247 248 249 249 258 266
18 23 14 15 12 350 6 350 349 344 344 327 312 292 279 282 281 285 281 277 275 276 265 261 261 259 242 231 239 237 244 247 242 236 232 225 225 227 228 232 231 224 227 227 231 226 221 206 197 184 192 196 196 192 186 183 175 171 175 169 177 177 175 184 187 195 192 191 195 193 191 191 195 201 224 233 234 241 247 247 248 248 251 251 255
12 13 13 14 8 7 357 355 348 335 307 288 290 284 298 298 295 294 288 286 281 278 276 274 272 268 259 247 242 243 246 251 252 252 249 238 227 237 238 238 217 223 220 227 220 225 222 217 218 194 193 197 187 188 178 183 177 174 176 178 186 185 190 195 195 194 189 195 197 195 189 185 189 217 230 237 239 240 241 244 246 250 252 254 252
14 14 12 11 7 10 357 348 338 334 320 328 317 328 314 306 297 291 287 282 276 277 280 282 284 286 276 262 260 255 251 252 253 252 253 255 250 242 238 237 220 226 225 231 230 223 206 220 219 187 194 195 189 183 184 181 173 176 177 180 184 187 193 188 180 185 191 197 200 192 181 192 209 208 215 217 227 240 247 247 251 251 251 249 253
14 10 15 14 4 351 341 330 341 327 329 319 315 302 300 298 293 289 286 284 283 282 282 283 286 286 283 277 263 255 254 255 256 257 256 253 250 252 250 244 227 226 225 222 224 222 229 214 194 191 200 197 199 199 188 179 171 177 182 177 185 181 185 187 189 187 188 191 197 188 191 200 206 204 208 212 218 229 240 246 244 248 249 251 252
16 14 7 2 3 356 349 346 338 332 324 319 313 312 307 295 288 285 287 282 286 284 283 284 286 284 281 275 264 257 257 259 261 262 262 261 261 256 253 240 234 234 229 224 222 232 221 219 223 208 211 206 205 201 190 183 185 182 182 173 181 188 200 198 197 183 179 184 188 187 188 196 203 208 207 206 213 222 232 238 237 245 246 248 250
12 3 6 356 353 347 345 337 334 323 322 318 312 309 306 298 293 286 282 285 283 284 286 286 282 280 278 279 277 273 269 265 264 265 267 266 267 265 261 249 239 237 235 219 210 217 208 214 200 207 198 182 179 180 186 174 177 182 184 189 192 198 198 187 172 177 188 190 189 188 184 196 213 214 211 215 216 219 231 235 236 237 240 248 253
6 3 355 350 340 328 324 319 321 323 315 308 304 301 299 300 299 292 286 282 287 287 287 285 286 285 284 283 282 279 277 273 274 273 267 266 266 269 269 260 255 247 234 221 203 206 201 208 217 223 210 179 170 167 180 181 181 186 194 198 204 200 190 176 173 180 182 179 175 179 187 205 210 214 211 209 221 222 225 229 225 232 240 248 252
0 351 346 337 333 321 323 323 316 311 307 307 306 306 302 303 301 299 300 299 294 291 292 291 288 287 289 286 285 282 280 279 278 277 276 277 276 277 272 266 261 252 234 216 203 193 193 200 204 202 199 186 177 181 184 183 184 188 193 200 194 199 165 152 173 180 185 176 183 185 201 211 216 209 203 202 209 217 219 226 228 234 234 235 243
349 347 335 337 327 327 321 326 319 316 311 313 308 305 304 304 302 301 299 297 298 295 296 294 296 293 293 291 292 290 289 286 284 283 281 281 281 280 273 269 261 257 238 222 208 192 198 200 194 200 197 195 191 182 181 177 184 188 190 203 199 192 184 184 187 186 172 166 191 197 205 206 206 209 206 205 208 214 226 231 233 232 235 241 244
346 338 340 327 327 320 323 316 312 309 307 307 302 302 300 299 296 296 295 296 293 292 291 293 292 295 295 297 297 295 295 293 291 288 287 286 287 285 278 264 257 241 235 224 217 202 199 201 199 205 205 205 197 186 188 188 191 194 198 196 200 202 203 204 203 186 183 199 190 195 198 203 202 207 212 211 212 216 222 223 224 227 234 242 245
346 344 342 338 328 323 326 319 316 312 313 304 308 301 304 301 300 297 299 297 296 296 297 295 296 295 293 291 293 295 293 294 293 292 290 289 288 288 285 276 263 246 233 237 234 214 205 202 196 201 200 199 196 198 197 198 197 194 197 198 203 199 197 194 197 201 192 188 189 192 199 200 203 206 209 210 210 212 217 219 222 222 233 240 244